Location: Abraham Lincoln Continuation High School
(33.9711°N, 117.3662°W)
Time: 04:12:47
(UTC+00:00)

USA 186 - Pass Details

Date: 21 September 2020
Orbit: 261 x 425 km, 96.9° (Epoch: 12 October)

Event Time Altitude Azimuth Distance (km) Brightness Sun altitude
Exits shadow 03:15:22 24° 24° (NNE) 885 3.3 -18.8°
Drops below altitude 10° 03:17:00 10° 6° (N) 1,489 4.6 -19.1°
Sets 03:19:07 0° 358° (N) 2,375 5.8 -19.5°
